Regional Weather Roundup
Issued by NWS Charleston, SC

Home | Current Version | Previous Version | Text Only | Print | Product List | Glossary On
Versions: 1 2 3 4 5 6 7 8 9 10 11 12 13 14 15 16 17 18 19 20 21 22 23 24 25 26 27 28 29 30 31 32 33 34 35 36 37 38 39 40 41 42 43 44 45 46 47 48 49 50
000
ASUS42 KCHS 181825
RWRCHS

REGIONAL WEATHER ROUNDUP
NATIONAL WEATHER SERVICE CHARLESTON SC
200 PM EDT FRI APR 18 2014

NOTE: "FAIR" INDICATES FEW OR NO CLOUDS BELOW 12,000 FEET WITH NO
SIGNIFICANT WEATHER AND/OR OBSTRUCTIONS TO VISIBILITY.

NOT ALL STATIONS ARE QUALITY CONTROLLED BY THE NATIONAL
WEATHER SERVICE. USE DATA WITH CAUTION...ESPECIALLY
DEWPOINT OBSERVATIONS.

SCZ027-030-031-034>040-042>050-181900-
...SOUTH CAROLINA...

CITY           SKY/WX    TMP DP  RH WIND       PRES   REMARKS
N CHARLESTON   PTSUNNY   69  53  56 NE16G23   30.20F
6HR MIN TEMP:  56; 6HR MAX TEMP:  71;

WATERFRONT PRK   N/A     63 N/A N/A NE72        N/A
FORT JOHNSON     N/A     61  55  82 E13G24    30.26F
MOUNT PLEASANT FAIR     N/A N/A N/A NE9G21    30.19F
JOHNS ISLAND   DRIZZLE   63  57  82 NE21G28   30.18F
PINOPOLIS        N/A     64  54  68 NE14      30.14F
MONCKS CORNER  FAIR      68  55  64 NE14      30.22F
SUMMERVILLE    MOCLDY    64  54  68 N12G18    30.20F
BEAUFORT MCAS  RAIN      61  54  77 E10G18    30.16F
6HR MIN TEMP:  57; 6HR MAX TEMP:  63; 6HR PCP:  0.02;

BEAUFORT ARPT  CLOUDY    61  57  88 NE16      30.13F
HILTON HEAD IS CLOUDY    59  57  94 NE13G23   30.16F FOG
GEORGETOWN     NOT AVBL
WALTERBORO     LGT RAIN  59  54  82 N8        30.18F
ORANGEBURG     LGT RAIN  59  46  62 NE13      30.25F
6HR MIN TEMP:  52; 6HR MAX TEMP:  60; 6HR PCP: TRACE;

BARNWELL       LGT RAIN  57  52  82 NE10      30.22F
AIKEN          LGT RAIN  54  50  87 N15G23    30.26F
MANNING        FAIR      63  48  59 NE10      30.24F
KINGSTREE      NOT AVBL
COLUMBIA       CLOUDY    61  44  53 N12       30.27F
6HR MIN TEMP:  53; 6HR MAX TEMP:  61;

SUMTER         CLOUDY    60  43  54 NE14      30.26F
6HR MIN TEMP:  49; 6HR MAX TEMP:  60; 6HR PCP: TRACE;

FLORENCE       CLOUDY    62  43  49 NE13      30.28F
6HR MIN TEMP:  49; 6HR MAX TEMP:  63;

MYRTLE BEACH   PTSUNNY   64  50  59 NE16      30.26
N MYRTLE BEACH CLOUDY    63  50  62 NE13      30.27
6HR MIN TEMP:  50; 6HR MAX TEMP:  64; 6HR PCP: TRACE;


$$

GAZ063-065-086>088-099>101-113>116-118-119-134-136>141-150-181900-
...GEORGIA...

CITY           SKY/WX    TMP DP  RH WIND       PRES   REMARKS
SAVANNAH ARPT  LGT RAIN  60  54  80 NE15G21   30.13F
6HR MIN TEMP:  59; 6HR MAX TEMP:  63; 6HR PCP:  0.02;

HUNTER AAF     RAIN      59  57  92 NE12      30.10F FOG
6HR MIN TEMP:  59; 6HR MAX TEMP:  61; 6HR PCP:  0.07;

FORT STEWART   HVY RAIN  59  59 100 NE14G22   30.08F FOG
6HR MIN TEMP:  59; 6HR MAX TEMP:  60; 6HR PCP:  0.06;

STATESBORO     NOT AVBL
SYLVANIA       RAIN      58  54  86 NE8       30.19F
CLAXTON        RAIN      55  55 100 NE7       30.13F
THOMSON        CLOUDY    52  52 100 N6        30.27F
AUGUSTA-BUSH   RAIN      55  50  83 N10       30.23F
6HR MIN TEMP:  54; 6HR MAX TEMP:  58; 6HR PCP:  0.06;

AUGUSTA-DANIEL LGT RAIN  56  50  80 N9        30.24F
SWAINSBORO     RAIN      52  52 100 NE14G20   30.16F
VIDALIA        RAIN      54  52  94 NE14G21   30.14F
ALMA           RAIN      56  54  93 VRB5      30.09F FOG
6HR MIN TEMP:  56; 6HR MAX TEMP:  59; 6HR PCP:  0.73;

WAYCROSS       NOT AVBL
JESUP          HVY RAIN  57  57 100 NE8       30.09R
BRUNSWICK      CLOUDY    63  61  94 NE21G29   30.08R
SAINT SIMONS   RAIN      63  62  97 NE18G26   30.02F FOG
6HR MIN TEMP:  63; 6HR MAX TEMP:  65; 6HR PCP:  0.36;


$$

SCZ027-028-034-036>038-045-046-048>050-GAZ119-141-181900-
...LAKE AND SUPPLEMENTAL COASTAL OBSERVATIONS...

STATION/POSITION TIME  TEMP    WIND        PRES    WAVE   SWELL
                       AIR SEA DIR/SP/G            HT/PER HT/PER/DIR
                 (UTC) (F)     (DEG/KT/KT) (MB)    (FT/S) (FT/S/D)
UPR LAKE MARION  NOT AVBL
WINYAH BAY       1800   58      50/ 16     1024.0F
LAKE MURRAY      1800   58      30/  4/ 10 1025.1S
ACE BASIN NERRS  1800   63      40/  5     1022.0S
FORT PULASKI     1800   60 59   40/ 19/ 27 1020.1F
SAPELO ISLAND    1800   61      40/ 19     1017.0F

$$

ANZ835-935-AMZ111-154-330-350-352-354-374-450-454-472-181900-
...C-MAN AND BUOY OBSERVATIONS...

STATION/POSITION TIME  TEMP    WIND        PRES    WAVE   SWELL
                       AIR SEA DIR/SP/G            HT/PER HT/PER/DIR
                 (UTC) (F)     (DEG/KT/KT) (MB)    (FT/S) (FT/S/D)
FOLLY BEACH CMAN 1800   59      50/ 24/ 29 1022.5F
BUOY 41004       NOT AVBL
BUOY 41008       1800   64 65   50/ 25/ 35 1016.6F   8/ 7
5E ST. MARYS GA  1700      64                N/A     6/ 7   2/ 90/12
FRYING PAN BUOY  1800   59 64   50/ 23/ 27 1023.9F   8/ 6   3/120/ 9
BUOY 41025       NOT AVBL
CAPE LOOKOUT NC  1800   56      30/ 18/ 20 1026.4F
BUOY 41002       NOT AVBL
BUOY 41010       1800   75 76  120/ 17/ 19 1018.6F   7/10   5/ 50/10
BUOY 41012       NOT AVBL
ST AUGUSTINE FL  1800   67     160/  9/ 10 1017.1F
CAPERS NEARSHORE 1700           50/ 23/ 27   N/A
FRIPP NEARSHORE  1700   60      70/ 25/ 31   N/A


$$


USA.gov is the U.S. government's official web portal to all federal, state and local government web resources and services.